TimeCDT,TemperatureF,Dew PointF,Humidity,Sea Level PressureIn,VisibilityMPH,Wind Direction,Wind SpeedMPH,Gust SpeedMPH,PrecipitationIn,Events,Conditions,WindDirDegrees,DateUTC
12:52 AM,30.0,21.9,72,30.11,-9999.0,East,9.2,-,N/A,,Overcast,90,2013-04-20 05:52:00
1:52 AM,30.0,19.9,66,30.11,-9999.0,ESE,10.4,-,N/A,,Overcast,120,2013-04-20 06:52:00
2:52 AM,30.0,19.0,64,30.10,-9999.0,SE,13.8,-,N/A,,Overcast,130,2013-04-20 07:52:00
3:52 AM,30.0,19.9,66,30.12,-9999.0,SE,12.7,-,N/A,,Overcast,140,2013-04-20 08:52:00
4:52 AM,30.0,21.9,72,30.10,-9999.0,ESE,11.5,-,N/A,,Overcast,120,2013-04-20 09:52:00
5:52 AM,28.9,25.0,85,30.10,-9999.0,ESE,10.4,-,0.00,,Overcast,120,2013-04-20 10:52:00
6:31 AM,28.4,24.8,86,30.03,-9999.0,ESE,10.4,-,0.00,,Overcast,120,2013-04-20 11:31:00
6:52 AM,28.9,24.1,82,30.10,-9999.0,SE,10.4,-,0.00,,Overcast,130,2013-04-20 11:52:00
7:52 AM,28.9,24.1,82,30.11,-9999.0,ESE,11.5,-,N/A,,Overcast,120,2013-04-20 12:52:00
8:38 AM,28.4,24.8,86,30.05,-9999.0,SE,13.8,-,0.00,Snow,Snow,130,2013-04-20 13:38:00
8:52 AM,28.9,26.1,89,30.12,-9999.0,SE,13.8,-,0.01,Snow,Snow,130,2013-04-20 13:52:00
8:59 AM,28.4,26.6,93,30.05,-9999.0,SE,12.7,-,0.01,Snow,Snow,140,2013-04-20 13:59:00
9:12 AM,28.4,26.6,93,30.04,-9999.0,SE,15.0,-,0.01,Snow,Light Snow,140,2013-04-20 14:12:00
9:42 AM,28.4,26.6,93,30.04,-9999.0,SE,12.7,-,0.03,Snow,Snow,130,2013-04-20 14:42:00
9:52 AM,30.0,27.0,88,30.12,-9999.0,SE,11.5,-,0.03,Snow,Light Snow,140,2013-04-20 14:52:00
10:04 AM,30.2,26.6,86,30.04,-9999.0,SSE,13.8,21.9,0.00,,Overcast,150,2013-04-20 15:04:00
10:52 AM,33.1,25.0,72,30.11,-9999.0,SSE,18.4,-,0.00,,Overcast,150,2013-04-20 15:52:00
11:52 AM,37.0,28.0,70,30.09,-9999.0,SSE,20.7,-,N/A,,Overcast,160,2013-04-20 16:52:00
12:52 PM,42.1,28.0,58,30.06,-9999.0,South,17.3,26.5,N/A,,Overcast,180,2013-04-20 17:52:00
1:52 PM,46.9,28.0,48,30.01,-9999.0,South,21.9,31.1,N/A,,Overcast,170,2013-04-20 18:52:00
2:52 PM,51.1,28.9,43,30.00,-9999.0,South,17.3,23.0,N/A,,Overcast,170,2013-04-20 19:52:00
3:52 PM,51.1,32.0,48,29.99,-9999.0,South,12.7,32.2,N/A,,Overcast,170,2013-04-20 20:52:00
4:52 PM,55.0,30.0,38,29.96,-9999.0,South,18.4,28.8,N/A,,Overcast,180,2013-04-20 21:52:00
5:52 PM,55.9,30.0,37,29.95,-9999.0,SSE,19.6,26.5,N/A,,Mostly Cloudy,160,2013-04-20 22:52:00
6:52 PM,55.0,28.9,37,29.95,-9999.0,South,20.7,-,N/A,,Mostly Cloudy,170,2013-04-20 23:52:00
7:52 PM,50.0,30.0,46,29.97,-9999.0,SSE,18.4,24.2,N/A,,Mostly Cloudy,160,2013-04-21 00:52:00
8:52 PM,46.0,30.0,54,30.00,-9999.0,SSE,16.1,-,N/A,,Partly Cloudy,150,2013-04-21 01:52:00
9:52 PM,43.0,30.0,60,30.03,-9999.0,SSE,11.5,-,N/A,,Partly Cloudy,160,2013-04-21 02:52:00
10:52 PM,43.0,30.0,60,30.03,-9999.0,South,17.3,-,N/A,,Scattered Clouds,170,2013-04-21 03:52:00
11:52 PM,42.1,30.0,62,30.02,-9999.0,South,18.4,25.3,N/A,,Clear,170,2013-04-21 04:52:00